Shanghai Hongqiao International

Airport
ICAO code: 
ZSSS
Summary
ICAO Region: 
APAC
Territory: 
Location: 
Puxi, Shanghai,
Coordinates: 
Aerial View: 
31° 11' 38.026" N, 121° 20' 46.853" E
Metar
Observation
ZSSS 071500Z 33002MPS 7000 NSC 11/08 Q1031 NOSIG
Station
Shanghai / Hongqiao
Date/Time
2021-12-07 15:00:00
Wind direction
330°
Lowest cloud amount
nil significant cloud
Temperature
11°C
Dew point
8°C
Humidity
81%
QNH
1031 hPa
Weather condition
n/a

Description

International airport serving the city of Shanghai.

Climatology

Humid “subtropical” climate (Köppen climate classification Cfa) - characterized by hot, humid summers and cool winters. Significant amounts of precipitation occur in all seasons in most areas. Winter rainfall (and sometimes snowfall) is associated with large storms that the westerlies steer from west to east. Most summer rainfall occurs during thunderstorms.

Runways

Designator Length Width Surface Rops
18/36 3400 58 ASP Yes/Yes
Airport map: 
Aerial View: 

SKYbrary Partners:

Safety knowledge contributed by: